EDV3285 KLGA-KPWM

Flight info

Callsign EDV3285
Flight time 0h 41m
Altitude 27000
Route MERIT HFD PUT
Aircraft CRJ7/M-SDFGIRWY/S

Departure

Time 2026-04-16 23:26
Airport LaGuardia Airport (KLGA)

Arrival

Time 2026-04-17 00:08
Airport Portland International Jetport (KPWM)
Time Latitude Longitude Altitude Speed Heading
2026-04-16 23:12 40.77240 -73.86617 14 ft 0 kts 133°
2026-04-16 23:19 40.77244 -73.86622 15 ft 2 kts 135°
2026-04-16 23:19 40.77257 -73.86636 15 ft 2 kts 148°
2026-04-16 23:19 40.77270 -73.86649 15 ft 2 kts 123°
2026-04-16 23:19 40.77271 -73.86670 18 ft 2 kts 62°
2026-04-16 23:20 40.77268 -73.86675 17 ft 0 kts 49°
2026-04-16 23:21 40.77311 -73.86625 12 ft 16 kts 41°
2026-04-16 23:22 40.77425 -73.86555 9 ft 20 kts 333°
2026-04-16 23:22 40.77541 -73.86648 8 ft 21 kts 302°
2026-04-16 23:22 40.77618 -73.86807 10 ft 20 kts 302°
2026-04-16 23:22 40.77694 -73.86966 11 ft 20 kts 302°
2026-04-16 23:23 40.77766 -73.87116 15 ft 19 kts 302°
2026-04-16 23:23 40.77836 -73.87267 15 ft 19 kts 302°
2026-04-16 23:23 40.77907 -73.87414 16 ft 19 kts 302°
2026-04-16 23:23 40.77984 -73.87575 13 ft 21 kts 302°
2026-04-16 23:24 40.78062 -73.87739 14 ft 21 kts 302°
2026-04-16 23:24 40.78159 -73.87868 9 ft 15 kts 352°
2026-04-16 23:24 40.78211 -73.87843 12 ft 7 kts 58°
2026-04-16 23:24 40.78206 -73.87794 12 ft 0 kts 124°
2026-04-16 23:25 40.78106 -73.87593 7 ft 67 kts 123°
2026-04-16 23:26 40.77716 -73.86780 11 ft 139 kts 123°
2026-04-16 23:26 40.77135 -73.85598 365 ft 163 kts 123°
2026-04-16 23:26 40.76548 -73.84290 1098 ft 171 kts 125°
2026-04-16 23:26 40.75911 -73.82880 1792 ft 182 kts 128°
2026-04-16 23:27 40.75226 -73.81442 2528 ft 200 kts 130°
2026-04-16 23:27 40.74475 -73.79719 3051 ft 224 kts 111°
2026-04-16 23:27 40.74392 -73.77678 3785 ft 233 kts 79°
2026-04-16 23:27 40.75121 -73.75645 4037 ft 261 kts 50°
2026-04-16 23:28 40.76548 -73.74060 4506 ft 274 kts 29°
2026-04-16 23:28 40.78209 -73.72842 5379 ft 273 kts 22°
2026-04-16 23:28 40.79991 -73.71898 6064 ft 281 kts 15°
2026-04-16 23:28 40.81876 -73.71074 6701 ft 289 kts 14°
2026-04-16 23:29 40.83758 -73.70262 7528 ft 288 kts 13°
2026-04-16 23:29 40.85669 -73.69416 8305 ft 291 kts 13°
2026-04-16 23:29 40.87601 -73.68518 9010 ft 297 kts 13°
2026-04-16 23:29 40.89518 -73.67390 9731 ft 307 kts 22°
2026-04-16 23:30 40.91372 -73.65939 10424 ft 311 kts 25°
2026-04-16 23:30 40.93203 -73.64466 11220 ft 308 kts 26°
2026-04-16 23:30 40.95021 -73.62929 11869 ft 315 kts 28°
2026-04-16 23:30 40.96910 -73.61284 12119 ft 335 kts 28°
2026-04-16 23:31 40.98857 -73.59579 12644 ft 342 kts 28°
2026-04-16 23:31 41.00845 -73.57836 13372 ft 344 kts 28°
2026-04-16 23:31 41.02850 -73.56078 14005 ft 348 kts 28°
2026-04-16 23:31 41.04884 -73.54265 14461 ft 358 kts 29°
2026-04-16 23:32 41.06952 -73.52306 14816 ft 372 kts 32°
2026-04-16 23:32 41.09011 -73.50210 15458 ft 375 kts 34°
2026-04-16 23:32 41.11006 -73.47947 16035 ft 381 kts 38°
2026-04-16 23:32 41.12957 -73.45534 16582 ft 386 kts 39°
2026-04-16 23:33 41.14907 -73.43064 17131 ft 390 kts 40°
2026-04-16 23:33 41.16874 -73.40559 17647 ft 394 kts 40°
2026-04-16 23:33 41.18872 -73.38029 18165 ft 398 kts 39°
2026-04-16 23:33 41.20898 -73.35497 18642 ft 402 kts 39°
2026-04-16 23:34 41.22950 -73.32955 19090 ft 406 kts 39°
2026-04-16 23:34 41.25023 -73.30386 19550 ft 409 kts 39°
2026-04-16 23:34 41.27105 -73.27800 20047 ft 411 kts 39°
2026-04-16 23:34 41.29195 -73.25185 20502 ft 414 kts 39°
2026-04-16 23:35 41.31298 -73.22551 20931 ft 418 kts 40°
2026-04-16 23:35 41.33425 -73.19887 21368 ft 420 kts 40°
2026-04-16 23:35 41.35539 -73.17245 21778 ft 423 kts 39°
2026-04-16 23:35 41.37703 -73.14554 22076 ft 431 kts 41°
2026-04-16 23:36 41.39604 -73.11443 22489 ft 436 kts 56°
2026-04-16 23:36 41.41100 -73.07903 22889 ft 440 kts 62°
2026-04-16 23:36 41.42512 -73.04283 23260 ft 442 kts 61°
2026-04-16 23:36 41.43979 -73.00670 23600 ft 445 kts 60°
2026-04-16 23:37 41.45538 -72.97091 23934 ft 447 kts 58°
2026-04-16 23:37 41.47150 -72.93478 23940 ft 459 kts 57°
2026-04-16 23:37 41.48824 -72.89799 23942 ft 470 kts 57°
2026-04-16 23:37 41.50520 -72.86043 24208 ft 474 kts 58°
2026-04-16 23:38 41.52190 -72.82244 24516 ft 476 kts 58°
2026-04-16 23:38 41.53857 -72.78417 24814 ft 478 kts 58°
2026-04-16 23:38 41.55521 -72.74612 25102 ft 480 kts 58°
2026-04-16 23:38 41.57203 -72.70757 25407 ft 481 kts 58°
2026-04-16 23:39 41.58894 -72.66900 25662 ft 483 kts 58°
2026-04-16 23:39 41.60594 -72.63001 25896 ft 485 kts 58°
2026-04-16 23:39 41.62297 -72.59094 26162 ft 486 kts 58°
2026-04-16 23:39 41.64007 -72.55187 26451 ft 487 kts 57°
2026-04-16 23:40 41.65741 -72.51288 26650 ft 490 kts 57°
2026-04-16 23:40 41.67516 -72.47358 26754 ft 496 kts 57°
2026-04-16 23:40 41.69309 -72.43378 26791 ft 503 kts 57°
2026-04-16 23:40 41.71124 -72.39348 26811 ft 510 kts 57°
2026-04-16 23:41 41.72972 -72.35256 26823 ft 516 kts 57°
2026-04-16 23:41 41.74835 -72.31109 26827 ft 523 kts 57°
2026-04-16 23:41 41.76716 -72.26914 26831 ft 529 kts 57°
2026-04-16 23:41 41.78617 -72.22668 26833 ft 532 kts 57°
2026-04-16 23:42 41.80520 -72.18414 26828 ft 531 kts 57°
2026-04-16 23:42 41.82417 -72.14164 26848 ft 531 kts 57°
2026-04-16 23:42 41.84309 -72.09919 26836 ft 530 kts 57°
2026-04-16 23:42 41.86178 -72.05725 26831 ft 530 kts 57°
2026-04-16 23:43 41.88066 -72.01478 26827 ft 530 kts 57°
2026-04-16 23:43 41.89949 -71.97236 26828 ft 529 kts 57°
2026-04-16 23:43 41.91835 -71.92983 26826 ft 529 kts 57°
2026-04-16 23:43 41.93723 -71.88744 26811 ft 527 kts 55°
2026-04-16 23:44 41.96041 -71.84980 26826 ft 519 kts 39°
2026-04-16 23:44 41.98837 -71.81947 26847 ft 515 kts 33°
2026-04-16 23:44 42.01422 -71.78570 26840 ft 523 kts 49°
2026-04-16 23:44 42.03494 -71.74660 26830 ft 522 kts 48°
2026-04-16 23:45 42.06078 -71.71315 26837 ft 513 kts 31°
2026-04-16 23:45 42.09038 -71.68633 26842 ft 510 kts 29°
2026-04-16 23:45 42.11903 -71.65787 26840 ft 515 kts 36°
2026-04-16 23:45 42.14514 -71.62544 26851 ft 518 kts 40°
2026-04-16 23:46 42.17063 -71.59122 26846 ft 518 kts 41°
2026-04-16 23:46 42.19624 -71.55693 26842 ft 518 kts 41°
2026-04-16 23:46 42.22215 -71.52311 26840 ft 517 kts 39°
2026-04-16 23:46 42.24842 -71.49000 26845 ft 517 kts 39°
2026-04-16 23:47 42.27465 -71.45681 26845 ft 517 kts 39°
2026-04-16 23:47 42.30098 -71.42373 26843 ft 517 kts 39°
2026-04-16 23:47 42.32735 -71.39065 26853 ft 517 kts 39°
2026-04-16 23:47 42.35360 -71.35728 26847 ft 518 kts 39°
2026-04-16 23:48 42.37978 -71.32377 26842 ft 518 kts 39°
2026-04-16 23:48 42.40597 -71.29019 26840 ft 518 kts 39°
2026-04-16 23:48 42.43216 -71.25659 26841 ft 519 kts 39°
2026-04-16 23:48 42.45832 -71.22297 26862 ft 519 kts 39°
2026-04-16 23:49 42.48447 -71.18928 26873 ft 519 kts 39°
2026-04-16 23:49 42.51066 -71.15556 26865 ft 520 kts 39°
2026-04-16 23:49 42.52801 -71.13322 26859 ft 520 kts 39°
2026-04-16 23:49 42.55423 -71.09934 26864 ft 520 kts 39°
2026-04-16 23:50 42.58040 -71.06550 26850 ft 520 kts 39°
2026-04-16 23:50 42.60662 -71.03157 26857 ft 520 kts 39°
2026-04-16 23:50 42.63279 -70.99769 26871 ft 521 kts 39°
2026-04-16 23:50 42.65906 -70.96365 26872 ft 521 kts 39°
2026-04-16 23:51 42.68530 -70.92954 26799 ft 523 kts 39°
2026-04-16 23:51 42.71178 -70.89505 25941 ft 527 kts 39°
2026-04-16 23:51 42.73819 -70.86063 25103 ft 526 kts 39°
2026-04-16 23:51 42.76455 -70.82627 24302 ft 524 kts 39°
2026-04-16 23:52 42.79087 -70.79187 23537 ft 523 kts 39°
2026-04-16 23:52 42.81691 -70.75786 22632 ft 514 kts 39°
2026-04-16 23:52 42.84250 -70.72436 21733 ft 505 kts 39°
2026-04-16 23:52 42.86763 -70.69144 20863 ft 497 kts 40°
2026-04-16 23:53 42.89234 -70.65898 20027 ft 490 kts 40°
2026-04-16 23:53 42.91667 -70.62696 19266 ft 481 kts 40°
2026-04-16 23:53 42.94060 -70.59551 18531 ft 474 kts 40°
2026-04-16 23:53 42.96411 -70.56440 17772 ft 467 kts 40°
2026-04-16 23:54 42.98739 -70.53384 16928 ft 461 kts 40°
2026-04-16 23:54 43.01027 -70.50360 16119 ft 455 kts 40°
2026-04-16 23:54 43.03287 -70.47382 15341 ft 449 kts 40°
2026-04-16 23:54 43.05486 -70.44470 14591 ft 443 kts 40°
2026-04-16 23:55 43.07685 -70.41561 13879 ft 436 kts 40°
2026-04-16 23:55 43.09844 -70.38700 13163 ft 429 kts 40°
2026-04-16 23:55 43.11973 -70.35874 12436 ft 423 kts 40°
2026-04-16 23:55 43.14072 -70.33093 11751 ft 416 kts 40°
2026-04-16 23:56 43.16134 -70.30398 11336 ft 401 kts 37°
2026-04-16 23:56 43.18280 -70.28124 11142 ft 380 kts 29°
2026-04-16 23:56 43.20446 -70.26225 11059 ft 360 kts 26°
2026-04-16 23:56 43.22638 -70.24889 11008 ft 330 kts
2026-04-16 23:57 43.24784 -70.25006 11005 ft 294 kts 336°
2026-04-16 23:57 43.26644 -70.25938 11007 ft 276 kts 329°
2026-04-16 23:57 43.28360 -70.27024 10789 ft 270 kts 324°
2026-04-16 23:57 43.29908 -70.28414 10457 ft 263 kts 313°
2026-04-16 23:58 43.31274 -70.30076 10131 ft 262 kts 310°
2026-04-16 23:58 43.32590 -70.31799 9802 ft 261 kts 309°
2026-04-16 23:58 43.33896 -70.33533 9450 ft 261 kts 309°
2026-04-16 23:58 43.35171 -70.35259 9105 ft 260 kts 309°
2026-04-16 23:59 43.36451 -70.37015 8762 ft 260 kts 308°
2026-04-16 23:59 43.37716 -70.38783 8411 ft 259 kts 308°
2026-04-16 23:59 43.38972 -70.40548 8124 ft 259 kts 308°
2026-04-16 23:59 43.40228 -70.42321 7883 ft 258 kts 308°
2026-04-17 00:00 43.41483 -70.44094 7642 ft 258 kts 308°
2026-04-17 00:00 43.42735 -70.45856 7388 ft 258 kts 308°
2026-04-17 00:00 43.43990 -70.47618 7174 ft 257 kts 308°
2026-04-17 00:00 43.45239 -70.49377 6932 ft 257 kts 308°
2026-04-17 00:01 43.46485 -70.51130 6694 ft 256 kts 308°
2026-04-17 00:01 43.47725 -70.52882 6453 ft 255 kts 308°
2026-04-17 00:01 43.48966 -70.54631 6219 ft 255 kts 308°
2026-04-17 00:01 43.50199 -70.56374 5994 ft 254 kts 308°
2026-04-17 00:02 43.51433 -70.58111 5759 ft 253 kts 308°
2026-04-17 00:02 43.52657 -70.59843 5532 ft 252 kts 308°
2026-04-17 00:02 43.53877 -70.61567 5305 ft 250 kts 309°
2026-04-17 00:02 43.55142 -70.63212 5059 ft 253 kts 321°
2026-04-17 00:03 43.56849 -70.63932 4830 ft 265 kts 351°
2026-04-17 00:03 43.58705 -70.63805 4577 ft 270 kts
2026-04-17 00:03 43.60529 -70.63291 4311 ft 272 kts
2026-04-17 00:03 43.62380 -70.62607 4044 ft 274 kts 18°
2026-04-17 00:04 43.63878 -70.61013 3792 ft 276 kts 54°
2026-04-17 00:04 43.64698 -70.58693 3549 ft 270 kts 70°
2026-04-17 00:04 43.65328 -70.56253 3248 ft 270 kts 72°
2026-04-17 00:04 43.65873 -70.53781 2911 ft 268 kts 83°
2026-04-17 00:05 43.65937 -70.51253 2648 ft 261 kts 98°
2026-04-17 00:05 43.65727 -70.48796 2380 ft 254 kts 102°
2026-04-17 00:05 43.65510 -70.46414 2097 ft 243 kts 99°
2026-04-17 00:05 43.65352 -70.44157 1815 ft 228 kts 98°
2026-04-17 00:06 43.65220 -70.42040 1439 ft 216 kts 97°
2026-04-17 00:06 43.65095 -70.40040 1142 ft 199 kts 98°
2026-04-17 00:06 43.64952 -70.38261 973 ft 174 kts 98°
2026-04-17 00:06 43.64844 -70.36770 811 ft 146 kts 94°
2026-04-17 00:07 43.64771 -70.35403 550 ft 140 kts 95°
2026-04-17 00:07 43.64682 -70.34043 359 ft 143 kts 94°
2026-04-17 00:07 43.64588 -70.32706 146 ft 139 kts 94°
2026-04-17 00:07 43.64516 -70.31504 69 ft 107 kts 95°
2026-04-17 00:08 43.64471 -70.30859 53 ft 29 kts 97°
2026-04-17 00:08 43.64475 -70.30692 54 ft 2 kts 33°
2026-04-17 00:08 43.64513 -70.30692 54 ft 6 kts 357°
2026-04-17 00:08 43.64516 -70.30692 52 ft 0 kts 357°
2026-04-17 00:09 43.64522 -70.30693 56 ft 4 kts 357°
2026-04-17 00:09 43.64568 -70.30729 57 ft 12 kts 292°
2026-04-17 00:09 43.64581 -70.30878 58 ft 19 kts 275°
2026-04-17 00:10 43.64604 -70.31045 52 ft 17 kts 310°
2026-04-17 00:10 43.64667 -70.31073 59 ft 6 kts 13°
2026-04-17 00:10 43.64668 -70.31073 58 ft 0 kts 13°